User: anonymous   Login
Location: Franzen
(48.6167°N, 15.3833°E)
Time: 04:22:39
(UTC+00:00)
Language:

Cosmos 2327 Rocket - Orbit

View from above orbital plane
View from above orbital plane
View from above satellite
View from above satellite

Ground track
Ground track

The orbit data is extracted from the following two-line orbital elements,

1 23774U 96004B   21169.56558958  .00000114  00000-0  10042-3 0  9998
2 23774  82.9785   0.8392 0043026 214.2089 145.6295 13.76555939276737
Epoch (UTC): 18 June 2021 13:34:26
Eccentricity: 0.0043026
inclination: 82.9785°
perigee height: 944 km
apogee height: 1008 km
right ascension of ascending node: 0.8392°
argument of perigee: 214.2089°
revolutions per day: 13.76555939
mean anomaly at epoch: 145.6295°
orbit number at epoch: 27673

The dashed part of the orbit path shows where the satellite is in the earth's shadow,  

DLR